WetterOnline ( http://www.wetteronline.de )

Wetter aktuell Neustadt i.H.

Aktuelles Wetter: Pelzerhaken/Neustadt i.H. (2m)

6-stündlich | Neueste Meldungen
Ortszeit Temperatur Wetter
So, 22.04. 20:00 10.7° C fast wolkenlos
So, 22.04. 14:00 12.6° C wolkig
So, 22.04. 8:00 7.8° C leicht bewölkt
So, 22.04. 2:00 4.8° C wolkig
Sa, 21.04. 20:00 10.7° C wolkenlos
Sa, 21.04. 14:00 13.8° C wolkenlos
Sa, 21.04. 8:00 10.6° C leicht bewölkt
Sa, 21.04. 2:00 11.0° C leicht bewölkt
Ortszeit Temperatur Wetter
Mo, 23.04. 1:30 11.1° C bewölkt
Mo, 23.04. 1:20 11.1° C bewölkt
Mo, 23.04. 1:10 11.6° C Hagelschauer
Mo, 23.04. 1:00 13.7° C wolkig
Mo, 23.04. 0:50 13.7° C wolkig
Mo, 23.04. 0:40 13.0° C bewölkt
Mo, 23.04. 0:30 12.0° C wolkig
Mo, 23.04. 0:00 12.3° C bedeckt
So, 22.04. 23:30 12.1° C bedeckt
So, 22.04. 23:00 11.4° C wolkig
So, 22.04. 22:30 10.7° C wolkig
Ortszeit Relative Feuchte Sichtweite
So, 22.04. 20:00 74% 25 km
So, 22.04. 14:00 65% 13 km
So, 22.04. 8:00 84% 19 km
So, 22.04. 2:00 96% 15 km
Sa, 21.04. 20:00 82% 28 km
Sa, 21.04. 14:00 61% 12 km
Sa, 21.04. 8:00 80% 3.1 km
Sa, 21.04. 2:00 78% 4.0 km
Ortszeit Relative Feuchte Sichtweite
Mo, 23.04. 1:30 87% 8 km
Mo, 23.04. 1:20 87% -
Mo, 23.04. 1:10 81% -
Mo, 23.04. 1:00 63% 30 km
Mo, 23.04. 0:50 63% -
Mo, 23.04. 0:40 67% -
Mo, 23.04. 0:30 74% 25 km
Mo, 23.04. 0:00 72% 22 km
So, 22.04. 23:30 76% 18 km
So, 22.04. 23:00 81% 13 km
So, 22.04. 22:30 83% 11 km
Ortszeit Niederschlagsmenge Niederschlagsart
So, 22.04. 20:00 0.0 l/m2 in 12 Std. -
So, 22.04. 14:00 0.0 l/m2 in 6 Std. -
So, 22.04. 8:00 0.0 l/m2 in 12 Std. -
So, 22.04. 2:00 0.0 l/m2 in 6 Std. -
Sa, 21.04. 20:00 0.0 l/m2 in 12 Std. -
Sa, 21.04. 14:00 0.0 l/m2 in 6 Std. -
Sa, 21.04. 8:00 0.0 l/m2 in 12 Std. -
Sa, 21.04. 2:00 0.0 l/m2 in 6 Std. -
Ortszeit Niederschlagsmenge Niederschlagsart
Mo, 23.04. 1:30 1.8 l/m2 in 1 Std. Schneeregen
Mo, 23.04. 1:20 keine Meldung -
Mo, 23.04. 1:10 keine Meldung -
Mo, 23.04. 1:00 0.0 l/m2 in 1 Std. -
Mo, 23.04. 0:50 keine Meldung -
Mo, 23.04. 0:40 keine Meldung -
Mo, 23.04. 0:30 0.0 l/m2 in 1 Std. -
Mo, 23.04. 0:00 0.0 l/m2 in 1 Std. -
So, 22.04. 23:30 0.0 l/m2 in 1 Std. -
So, 22.04. 23:00 0.0 l/m2 in 1 Std. -
So, 22.04. 22:30 0.0 l/m2 in 1 Std. -
Ortszeit Stärke Spitze Richtung
km/h Bft. km/h Grad Sektor
So, 22.04. 20:00 18 3 32 50° NO
So, 22.04. 14:00 13 3 17 70° O
So, 22.04. 8:00 4 1 11 20° N
So, 22.04. 2:00 6 1 13 310° NW
Sa, 21.04. 20:00 4 1 22 140° SO
Sa, 21.04. 14:00 9 2 19 110° O
Sa, 21.04. 8:00 9 2 19 300° NW
Sa, 21.04. 2:00 7 2 29 250° W
Ortszeit Stärke Spitze Richtung
km/h Bft. km/h Grad Sektor
Mo, 23.04. 1:30 4 1 18 310° NW
Mo, 23.04. 1:20 4 1 - 310° NW
Mo, 23.04. 1:10 11 2 - 200° S
Mo, 23.04. 1:00 7 2 17 260° W
Mo, 23.04. 0:50 7 2 - 260° W
Mo, 23.04. 0:40 7 2 - 280° W
Mo, 23.04. 0:30 4 1 18 40° NO
Mo, 23.04. 0:00 13 3 20 60° NO
So, 22.04. 23:30 13 3 20 60° NO
So, 22.04. 23:00 14 3 18 60° NO
So, 22.04. 22:30 13 3 19 60° NO
Ortszeit Untergrenze Bedeckung Gattung
total tief tief mittel hoch
So, 22.04. 20:00 2100 m 1/8 1/8 - - -
So, 22.04. 14:00 7500 m 4/8 - - - -
So, 22.04. 8:00 9000 m 8/8 0/8 - - -
So, 22.04. 2:00 8700 m 8/8 0/8 - - -
Sa, 21.04. 20:00 - 0/8 0/8 - - -
Sa, 21.04. 14:00 - 0/8 0/8 - - -
Sa, 21.04. 8:00 10500 m 3/8 0/8 - - -
Sa, 21.04. 2:00 9000 m 5/8 0/8 - - -
Ortszeit Bedeckungsgrad in Achtel und Wolkenuntergrenze
Mo, 23.04. 1:30 1(210m) 7(2100m) 8(3600m)
Mo, 23.04. 1:20 1(210m) 7(2100m) 8(3600m)
Mo, 23.04. 1:10 1(270m) 6(2100m) 8(3600m)
Mo, 23.04. 1:00 2(1500m) 7(3900m) 8(4200m)
Mo, 23.04. 0:50 2(1500m) 7(3900m) 8(4200m)
Mo, 23.04. 0:40 7(3900m) 7(4200m)
Mo, 23.04. 0:30 1(2100m) 5(3600m) 7(4200m)
Mo, 23.04. 0:00 4(4800m) 8(5400m)
So, 22.04. 23:30 4(6000m) 8(6900m) 8(8700m)
So, 22.04. 23:00 3(7800m) 8(8400m) 8(9000m)
So, 22.04. 22:30 3(7500m) 8(9000m) 8(9000m)
Ortszeit Luftdruck NN (hPa) Tendenz (hPa in 3 Std.)
So, 22.04. 20:00 1011 - 1,7
So, 22.04. 14:00 1016 - 1,9
So, 22.04. 8:00 1018 - 0,5
So, 22.04. 2:00 1020 - 0,1
Sa, 21.04. 20:00 1020 - 0,8
Sa, 21.04. 14:00 1022 - 0,3
Sa, 21.04. 8:00 1021 + 1,1
Sa, 21.04. 2:00 1019 - 0,1
Ortszeit Luftdruck NN (hPa) Tendenz (hPa in 3 Std.)
Mo, 23.04. 1:30 1009 - 1,0
Mo, 23.04. 1:20 1009 keine Meldung
Mo, 23.04. 1:10 1009 keine Meldung
Mo, 23.04. 1:00 1010 - 1,0
Mo, 23.04. 0:50 1010 keine Meldung
Mo, 23.04. 0:40 1010 keine Meldung
Mo, 23.04. 0:30 1009 - 1,4
Mo, 23.04. 0:00 1009 - 2,1
So, 22.04. 23:30 1009 - 1,9
So, 22.04. 23:00 1010 - 1,8
So, 22.04. 22:30 1010 - 1,5
Ortszeit Schneehöhe (cm)
So, 22.04. 20:00 0
So, 22.04. 14:00 0
So, 22.04. 8:00 0
So, 22.04. 2:00 0
Sa, 21.04. 20:00 0
Sa, 21.04. 14:00 0
Sa, 21.04. 8:00 0
Sa, 21.04. 2:00 0
Ortszeit Schneehöhe (cm)
Mo, 23.04. 1:30 0
Mo, 23.04. 1:20 0
Mo, 23.04. 1:10 0
Mo, 23.04. 1:00 0
Mo, 23.04. 0:50 0
Mo, 23.04. 0:40 0
Mo, 23.04. 0:30 0
Mo, 23.04. 0:00 0
So, 22.04. 23:30 0
So, 22.04. 23:00 0
So, 22.04. 22:30 0
Link zu dieser Seite / Seite empfehlen

Das Wetter in ...